This is the latest recevied weather packets stored in our database for station/object K0QED. If no packets are shown the sender has not sent any weather packets the latest 10 day(s).
| Time | Temp. | Humidity | Pressure | Rain* | Wind** | Luminosity | Snow |
|---|---|---|---|---|---|---|---|
| 1788175686 | 12.22° C | 74% | 1026.6 hPa | 0 mm | - | 0 W/m² | - |
| 1788175381 | 11.67° C | 77% | 1026.6 hPa | 0 mm | - | 0 W/m² | - |
| 1788175076 | 12.22° C | 75% | 1027 hPa | 0 mm | - | 0 W/m² | - |
| 1788174773 | 12.78° C | 71% | 1026.6 hPa | 0 mm | - | 0 W/m² | - |
| 1788174469 | 12.22° C | 73% | 1026.6 hPa | 0 mm | - | 0 W/m² | - |
| 1788174163 | 12.22° C | 74% | 1026.7 hPa | 0 mm | - | 0 W/m² | - |
| 1788173862 | 11.67° C | 79% | 1026.7 hPa | 0 mm | - | 0 W/m² | - |
| 1788173558 | 11.67° C | 80% | 1026.9 hPa | 0 mm | - | 0 W/m² | - |
| 1788173252 | 11.67° C | 83% | 1026.7 hPa | 0 mm | - | 0 W/m² | - |
| 1788172950 | 12.22° C | 80% | 1026.6 hPa | 0 mm | - | 0 W/m² | - |
| 1788172649 | 12.22° C | 80% | 1026.6 hPa | 0 mm | - | 0 W/m² | - |
| 1788172345 | 12.22° C | 81% | 1026.6 hPa | 0 mm | - | 0 W/m² | - |
| 1788172044 | 12.22° C | 81% | 1026.6 hPa | 0 mm | - | 0 W/m² | - |
| 1788171739 | 11.67° C | 83% | 1026.4 hPa | 0 mm | - | 0 W/m² | - |
| 1788171435 | 11.67° C | 83% | 1026.6 hPa | 0 mm | - | 0 W/m² | - |
| 1788171130 | 11.67° C | 85% | 1026.4 hPa | 0 mm | - | 0 W/m² | - |
| 1788170826 | 12.22° C | 84% | 1026.2 hPa | 0 mm | - | 0 W/m² | - |
| 1788170522 | 12.22° C | 82% | 1026.5 hPa | 0 mm | - | 0 W/m² | - |
| 1788170220 | 12.22° C | 82% | 1026.6 hPa | 0 mm | - | 0 W/m² | - |
| 1788169915 | 12.78° C | 83% | 1026.7 hPa | 0 mm | - | 0 W/m² | - |
| 1788169610 | 12.78° C | 83% | 1026.6 hPa | 0 mm | - | 0 W/m² | - |
| 1788169306 | 12.78° C | 80% | 1026.4 hPa | 0 mm | - | 0 W/m² | - |
| 1788169002 | 12.78° C | 82% | 1026.4 hPa | 0 mm | - | 0 W/m² | - |
| 1788168698 | 13.33° C | 84% | 1026.2 hPa | 0 mm | - | 0 W/m² | - |
| 1788168394 | 12.78° C | 80% | 1026.1 hPa | 0 mm | - | 0 W/m² | - |
* Rain latest hour (hover to see other rain measurements)
** Current wind speed in m/s (hover to see current wind gust speed)